TimeMST,TemperatureF,Dew PointF,Humidity,Sea Level PressureIn,VisibilityMPH,Wind Direction,Wind SpeedMPH,Gust SpeedMPH,PrecipitationIn,Events,Conditions,WindDirDegrees,DateUTC
12:53 AM,28.9,23.0,78,30.36,10.0,Calm,Calm,-,N/A,,Overcast,0,2012-01-25 07:53:00
1:53 AM,28.0,23.0,81,30.37,10.0,SE,3.5,-,N/A,,Overcast,130,2012-01-25 08:53:00
2:53 AM,28.0,21.9,78,30.37,10.0,SE,3.5,-,N/A,,Overcast,140,2012-01-25 09:53:00
5:53 AM,18.0,14.0,84,30.48,10.0,SSE,6.9,-,N/A,,Clear,160,2012-01-25 12:53:00
6:53 AM,17.1,12.0,81,30.48,10.0,SE,9.2,-,N/A,,Clear,140,2012-01-25 13:53:00
7:53 AM,18.0,12.0,78,30.51,10.0,SE,10.4,-,N/A,,Clear,140,2012-01-25 14:53:00
8:53 AM,21.0,14.0,74,30.49,10.0,SE,11.5,-,N/A,,Clear,140,2012-01-25 15:53:00
9:53 AM,28.0,17.1,63,30.44,10.0,ESE,10.4,-,N/A,,Clear,120,2012-01-25 16:53:00
10:53 AM,32.0,19.9,61,30.42,10.0,NNW,8.1,-,N/A,,Clear,340,2012-01-25 17:53:00
11:53 AM,32.0,21.9,66,30.40,10.0,NNW,6.9,-,N/A,,Clear,330,2012-01-25 18:53:00
12:53 PM,34.0,23.0,64,30.36,10.0,Calm,Calm,-,N/A,,Clear,0,2012-01-25 19:53:00
1:53 PM,35.1,23.0,61,30.34,10.0,Calm,Calm,-,N/A,,Clear,0,2012-01-25 20:53:00
2:53 PM,37.0,21.9,54,30.31,10.0,Calm,Calm,-,N/A,,Clear,0,2012-01-25 21:53:00
3:53 PM,37.9,24.1,57,30.35,10.0,NNW,3.5,-,N/A,,Clear,340,2012-01-25 22:53:00
4:53 PM,36.0,25.0,64,30.35,10.0,Calm,Calm,-,N/A,,Clear,0,2012-01-25 23:53:00
5:53 PM,34.0,25.0,70,30.39,10.0,Calm,Calm,-,N/A,,Clear,0,2012-01-26 00:53:00
7:53 PM,28.0,23.0,81,30.43,10.0,SE,5.8,-,N/A,,Clear,130,2012-01-26 02:53:00
9:53 PM,26.1,21.9,84,30.40,10.0,SE,5.8,-,N/A,,Clear,140,2012-01-26 04:53:00
10:53 PM,26.1,21.0,81,30.39,10.0,South,4.6,-,N/A,,Clear,170,2012-01-26 05:53:00
11:53 PM,25.0,21.0,85,30.38,10.0,North,-9999.0,-,N/A,,Clear,0,2012-01-26 06:53:00